Tracking 19574 objects as of 16-Feb-2019
HD Live streaming from Space Station
objects crossing your sky now

COSMOS 1088

Track COSMOS 1088 now!
10-day predictions
COSMOS 1088 is classified as:


NORAD ID: 11303
Int'l Code: 1979-024H
Perigee: 1,472.4 km
Apogee: 1,554.1 km
Inclination: 74.0 °
Period: 116.1 minutes
Semi major axis: 7884 km
RCS: 0.7099 m2 (medium)
Launch date: March 15, 1979
Source: Commonwealth of Independent States (former USSR) (CIS)
Launch site: PLESETSK MISSILE AND SPACE COMPLEX (PKMTR)
aabbcc
Your satellite tracking list
Your tracking list is empty




NASA's NSSDC Master Catalog

Two Line Element Set (TLE):
1 11303U 79024H   19046.79119896 -.00000010  00000-0  41308-4 0  9992
2 11303  74.0333 288.6311 0051782 345.9317  77.0274 12.40120869807661
Source of the keplerian elements: AFSPC